Weather History for Du Bois, PA

Change the Weather History Date:

Tuesday, February 21, 2012

  Actual Average Record
Temperature  
Mean Temperature 33 °F 28 °F  
Max Temperature 39 °F 36 °F 60 °F (1983)
Min Temperature 26 °F 19 °F -8 °F (1968)
Degree Days  
Heating Degree Days 32 37  
Month to date heating degree days 735 825  
Since 1 July heating degree days 3757 4769  
Cooling Degree Days 0 0  
Month to date cooling degree days 0 0  
Year to date cooling degree days 0 0  
Moisture  
Dew Point 25 °F    
Average Humidity 68    
Maximum Humidity 92    
Minimum Humidity 44    
Precipitation  
Precipitation 0.04 in 0.09 in 8.43 in (1999)
Month to date precipitation 0.61 1.70  
Sea Level Pressure  
Sea Level Pressure 29.90 in    
Wind  
Wind Speed 10 mph (SSE)    
Max Wind Speed 17 mph    
Max Gust Speed 28 mph    
Visibility 6 miles    
Events Fog , Snow    
T = Trace of Precipitation, MM = Missing Value Source: NWS Daily Summary

Daily Weather History Graph

Daily Weather History Graph

Search for Another Location

Airport:

Trip Planner

Search our weather history database for the weather conditions in past years. The results will help you decide how hot, cold, wet, or windy it might be!

Date:

Astronomy

Feb. 21, 2012 Rise Set
Actual Time 7:02 AM EST 5:56 PM EST
Civil Twilight 6:34 AM EST 6:24 PM EST
Nautical Twilight 6:02 AM EST 6:56 PM EST
Astronomical Twilight 5:30 AM EST 7:28 PM EST
Moon 6:30 AM EST (2/21) 6:01 PM EST (2/21)
Length of Visible Light 11h 49m
Length of Day
10h 53m
Waning Crescent, 0% of the Moon is Illuminated
Feb 21
Waning Crescent
Feb 21
New
Feb 29
First Quarter
Mar 8
Full
Mar 14
Last Quarter

Hourly Weather History & Observations

Time (EST) Temp. Windchill Dew Point Humidity Pressure Visibility Wind Dir Wind Speed Gust Speed Precip Events Conditions
12:56 AM 27.0 °F 18.7 °F 15.1 °F 61% 30.25 in 10.0 mi SE 8.1 mph - N/A   Clear
1:56 AM 28.0 °F 20.0 °F 15.1 °F 58% 30.22 in 10.0 mi ESE 8.1 mph - N/A   Clear
2:56 AM 28.9 °F 20.4 °F 15.1 °F 56% 30.18 in 10.0 mi ESE 9.2 mph - N/A   Clear
3:56 AM 28.0 °F 18.6 °F 16.0 °F 61% 30.15 in 10.0 mi ESE 10.4 mph - N/A   Clear
4:56 AM 28.0 °F 18.1 °F 16.0 °F 61% 30.13 in 10.0 mi SE 11.5 mph - N/A   Clear
5:56 AM 28.9 °F 19.2 °F 16.0 °F 58% 30.12 in 10.0 mi SE 11.5 mph - N/A   Clear
6:56 AM 28.9 °F 18.6 °F 16.0 °F 58% 30.08 in 10.0 mi SE 12.7 mph - N/A   Clear
7:56 AM 30.0 °F 20.0 °F 17.1 °F 59% 30.08 in 10.0 mi SE 12.7 mph 24.2 mph N/A   Clear
8:56 AM 32.0 °F 22.1 °F 17.6 °F 55% 30.01 in 10.0 mi SE 13.8 mph 23.0 mph N/A   Clear
9:56 AM 34.0 °F 23.8 °F 18.0 °F 52% 30.02 in 10.0 mi SE 16.1 mph 24.2 mph N/A   Clear
10:56 AM 34.0 °F 23.8 °F 18.0 °F 52% 29.96 in 10.0 mi SE 16.1 mph 25.3 mph N/A   Partly Cloudy
11:56 AM 35.1 °F 25.9 °F 18.0 °F 50% 29.95 in 10.0 mi SSE 13.8 mph 26.5 mph N/A   Overcast
12:56 PM 37.0 °F 32.4 °F 18.0 °F 46% 29.89 in 10.0 mi Variable 5.8 mph - N/A   Overcast
1:31 PM 35.6 °F 29.2 °F 23.0 °F 60% 29.83 in 2.5 mi South 8.1 mph 19.6 mph 0.00 in Snow Light Snow
1:37 PM 33.8 °F 27.0 °F 26.6 °F 75% 29.84 in 0.8 mi SSW 8.1 mph 19.6 mph 0.00 in Snow Light Snow
1:53 PM 32.0 °F 24.8 °F 28.4 °F 87% 29.82 in 1.5 mi SSE 8.1 mph - 0.00 in Snow Light Snow
1:56 PM 32.0 °F 24.8 °F 28.0 °F 85% 29.88 in 2.0 mi SSE 8.1 mph - 0.00 in Snow Light Snow
2:11 PM 32.0 °F 25.6 °F 28.4 °F 87% 29.82 in 0.8 mi Variable 6.9 mph - 0.00 in Snow Light Snow
2:26 PM 30.2 °F 22.6 °F 28.4 °F 93% 29.82 in 0.5 mi SSE 8.1 mph 18.4 mph 0.00 in Fog , Snow Snow
2:35 PM 30.2 °F 23.4 °F 28.4 °F 93% 29.81 in 0.2 mi SSE 6.9 mph - 0.01 in Fog , Snow Snow
2:44 PM 30.2 °F 22.6 °F 28.4 °F 93% 29.81 in 0.2 mi SSE 8.1 mph 17.3 mph 0.02 in Fog , Snow Snow
2:56 PM 30.2 °F 22.6 °F 28.4 °F 93% 29.80 in 0.2 mi SE 8.1 mph - N/A Fog , Snow Light Snow
3:03 PM 30.2 °F 24.3 °F 28.4 °F 93% 29.80 in 1.0 mi SSE 5.8 mph - 0.00 in Snow Light Snow
3:08 PM 30.2 °F 25.4 °F 28.4 °F 93% 29.80 in 3.0 mi Variable 4.6 mph - 0.00 in Snow Light Snow
3:16 PM 30.2 °F 25.4 °F 28.4 °F 93% 29.80 in 7.0 mi Variable 4.6 mph - 0.00 in   Overcast
3:29 PM 30.2 °F 23.4 °F 28.4 °F 93% 29.80 in 1.5 mi SSE 6.9 mph - 0.00 in Snow Light Snow
3:39 PM 30.2 °F 22.6 °F 28.4 °F 93% 29.79 in 0.5 mi SSE 8.1 mph - 0.00 in Fog , Snow Light Snow
3:46 PM 30.2 °F 21.9 °F 28.4 °F 93% 29.79 in 1.2 mi SE 9.2 mph - 0.00 in Snow Light Snow
3:56 PM 30.9 °F 23.5 °F 28.9 °F 92% 29.84 in 2.0 mi SE 8.1 mph - 0.00 in Snow Light Snow
4:06 PM 30.2 °F 22.6 °F 28.4 °F 93% 29.79 in 5.0 mi SE 8.1 mph - 0.00 in   Overcast
4:56 PM 32.0 °F 25.6 °F 30.0 °F 92% 29.83 in 10.0 mi SE 6.9 mph - 0.00 in   Overcast
5:56 PM 33.1 °F 26.9 °F 28.9 °F 85% 29.84 in 10.0 mi SE 6.9 mph - 0.01 in   Overcast
6:56 PM 34.0 °F 29.8 °F 28.0 °F 79% 29.83 in 10.0 mi Variable 4.6 mph - N/A   Overcast
7:56 PM 35.1 °F 32.2 °F 28.0 °F 76% 29.82 in 10.0 mi Variable 3.5 mph - N/A   Overcast
8:56 PM 37.0 °F 33.3 °F 30.9 °F 79% 29.80 in 10.0 mi SSW 4.6 mph - N/A   Overcast
9:56 PM 39.0 °F 31.8 °F 33.1 °F 79% 29.78 in 10.0 mi SW 11.5 mph - N/A   Overcast
10:56 PM 37.9 °F 30.0 °F 33.1 °F 83% 29.77 in 10.0 mi SW 12.7 mph - N/A   Overcast
11:56 PM 39.0 °F 31.8 °F 34.0 °F 82% 29.75 in 10.0 mi SW 11.5 mph - N/A   Overcast